Regional Weather Roundup
Issued by NWS San Angelo, TX

Home | Current Version | Previous Version | Text Only | Print | Product List | Glossary On
Versions: 1 2 3 4 5 6 7 8 9 10 11 12 13 14 15 16 17 18 19 20 21 22 23 24 25 26 27 28 29 30 31 32 33 34 35 36 37 38 39 40 41 42 43 44 45 46 47 48 49 50
000
ASUS44 KSJT 222210
RWRSJT
WEST CENTRAL TEXAS REGIONAL WEATHER ROUNDUP
NATIONAL WEATHER SERVICE SAN ANGELO TX
500 PM CDT TUE JUL 22 2014

NOTE: "FAIR" INDICATES FEW OR NO CLOUDS BELOW 12,000 FEET WITH NO
SIGNIFICANT WEATHER AND/OR OBSTRUCTIONS TO VISIBILITY.

TXZ049-054-064>066-071>073-076>078-098-099-113-114-127-128-139-140-
154-155-168>170-222300
...LOCATIONS ACROSS WEST CENTRAL TEXAS...

CITY           SKY/WX    TMP DP  RH WIND       PRES   REMARKS
SAN ANGELO     MOSUNNY   98  63  31 E10       30.04F
ABILENE        SUNNY     97  66  36 E5        30.06F
DYESS AFB      SUNNY     96  67  39 SE9       30.05F
JUNCTION       SUNNY     96  61  31 MISG      30.04F
SWEETWATER     MOSUNNY   96  55  25 E9        30.11F
BROWNWOOD      LGT RAIN  95  68  41 E8        30.05F
COLEMAN        CLEAR     94  63  35 E6        30.06F
SONORA         MOSUNNY   97  57  26 VRB6G12   30.08F
OZONA          FAIR      97  55  24 E5        30.08F
BRADY          SUNNY     95  64  36 E7        30.07S
$$

TEXAS PANHANDLE/OKLAHOMA PANHANDLE

CITY           SKY/WX    TMP DP  RH WIND       PRES   REMARKS
AMARILLO       MOSUNNY   92  66  42 S13G18    30.16F
BORGER         MOSUNNY   95  64  35 SE13      30.12F
CANADIAN       MOSUNNY   97  62  32 SE15G23   30.09F
DALHART        SUNNY     93  60  33 S12       30.20S
DUMAS          PTCLDY    92  63  37 SE9       30.17S
GUYMON         NOT AVBL
HEREFORD       CLEAR     91  66  43 S8        30.18F
PAMPA          CLEAR     92  60  33 SE10G17   30.16S
PERRYTON       CLOUDY    84  69  61 SE8       30.12S
$$

SOUTHERN PANHANDLE/SOUTH PLAINS/ROLLING PLAINS

CITY           SKY/WX    TMP DP  RH WIND       PRES   REMARKS
LUBBOCK        PTSUNNY   91  55  29 S12       30.17R
SNYDER         MOSUNNY   95  64  34 SE12      30.09F
CHILDRESS      SUNNY     97  62  31 SE7       30.07F
SEMINOLE       PTCLDY    93  54  26 E13       30.14F
$$

PERMIAN BASIN

CITY           SKY/WX    TMP DP  RH WIND       PRES   REMARKS
MIDLAND        PTSUNNY   85  66  53 E29G39    30.11R BLWGDUST
ODESSA         MOSUNNY   97  53  22 E14       30.10F
WINK           MOSUNNY  100  53  20 E15G24    30.05S
$$

FAR WEST/SOUTHWEST MOUNTAINS/TRANS PECOS

CITY           SKY/WX    TMP DP  RH WIND       PRES   REMARKS
ALPINE         CLOUDY    90  56  31 SE6       30.21F
DRYDEN           N/A    102  60  25 E13G24    30.01F
EL PASO        MOSUNNY   99  51  19 MISG      30.06F
FORT STOCKTON  MOSUNNY   94  58  29 E14       30.08F
GUADALUPE PASS MOSUNNY   88  55  32 NE18G31   30.26S
MARFA          MOSUNNY   91  55  29 E9        30.20F
PECOS          CLEAR     99  55  22 E12       30.04S
$$

DALLAS/FORT WORTH METROPLEX

CITY           SKY/WX    TMP DP  RH WIND       PRES   REMARKS
DFW AIRPORT    PTSUNNY   96  67  38 NE7       30.02F
FTW MEACHAM    MOSUNNY   96  67  38 E7        30.01F
DAL-EXECUTIVE  SUNNY     98  69  38 NE8       30.02F
GRAND PRAIRIE  SUNNY     95  66  38 NE10      30.03F
ADDISON        MOSUNNY   93  66  40 E7        30.03F
MESQUITE       PTCLDY    93  88  84 E6        30.03R HX 130
LANCASTER      PTCLDY    95  68  41 E8        30.03S
$$

NORTH CENTRAL TEXAS

CITY           SKY/WX    TMP DP  RH WIND       PRES   REMARKS
SHRMAN/DENISON PTCLDY    94  69  44 E3        30.06R
GAINESVILLE    MOSUNNY   93  72  49 E8        30.06S
BRIDGEPORT     PTCLDY    95  66  39 SE9       30.06S
DENTON         PTSUNNY   93  71  48 E5        30.03F
WAXAHACHIE     PTCLDY    94  66  39 E6        30.03S
GRANBURY       CLEAR     98  65  33 S6        30.03F
$$

WESTERN NORTH TEXAS

CITY           SKY/WX    TMP DP  RH WIND       PRES   REMARKS
WICHITA FALLS  MOSUNNY   95  70  44 SE8       30.03F
VERNON         PTCLDY    99  63  30 SE7       30.05F
BRECKENRIDGE   CLEAR    101  58  23 E7        30.02F
COMANCHE       MOSUNNY   95  65  36 E6        30.06S
$$

CENTRAL AND SOUTH CENTRAL TEXAS

CITY           SKY/WX    TMP DP  RH WIND       PRES   REMARKS
AUSTIN/BERGSTM MOSUNNY   95  70  44 N7        29.99F
WACO           SUNNY     96  68  39 VRB6      30.00F
HILLSBORO      PTCLDY    96  65  36 N3        30.01F
TEMPLE         MOSUNNY   93  66  40 E5        30.02F
KILLEEN-GRAY   MOSUNNY   93  66  40 VRB6      30.03F
FORT HOOD      PTSUNNY   99  67  35 E6        30.02F
GEORGETOWN     MOSUNNY   93  70  46 S7        30.01F
LAGO VISTA     FAIR      94  63  35 E7        30.05S
SAN MARCOS     SUNNY     97  63  32 CALM      30.00F
NEW BRAUNFELS  SUNNY     96  61  31 VRB3      29.99F
RANDOLPH AFB   MOSUNNY   96  64  34 E5        30.00F
SAN ANTONIO    MOSUNNY   95  65  37 E8        30.01F
STINSON        MOSUNNY   95  67  39 E8        29.98F
PLEASANTON     NOT AVBL
LA GRANGE      SUNNY     98  70  41 CALM      29.97F
GIDDINGS       PTCLDY    93  70  46 CALM      30.04F
$$

EAST TEXAS

CITY           SKY/WX    TMP DP  RH WIND       PRES   REMARKS
PARIS          MOSUNNY   90  70  51 NE7       30.06F
CLARKSVILLE    MOCLDY    91  68  47 E3        30.05F
TYLER          MOSUNNY   91  69  48 E5        30.04S
LONGVIEW       MOSUNNY   90  68  48 NE8       30.04F
PALESTINE      NOT AVBL
NACOGDOCHES    MOSUNNY   90  70  51 E6        30.03F
$$

TEXAS HILL COUNTRY AND EDWARDS PLATEAU

CITY           SKY/WX    TMP DP  RH WIND       PRES   REMARKS
LLANO          CLEAR     97  66  36 SE6       30.05F
HORSESHOE BAY  FAIR      97  61  30 E8        30.02F
KERRVILLE      MOSUNNY   97  64  33 SE9       30.04F
FREDERICKSBRG  SUNNY     96  57  27 SE10      30.05F
ROCKSPRINGS    PTCLDY    93  61  33 SE6       30.08F
HONDO          SUNNY     95  65  37 E6        30.01F
UVALDE         PTCLDY    95  67  39 E10       30.00F
DEL RIO        SUNNY     99  64  31 E8G18     29.96F
$$

SOUTHEAST TEXAS

CITY           SKY/WX    TMP DP  RH WIND       PRES   REMARKS
COLLEGE STN    MOSUNNY   93  72  50 VRB3      30.00F
CALDWELL       CLEAR     93  72  49 E3        30.03F
CROCKETT         N/A     93  79  62 NE7       30.04F
BRENHAM        SUNNY     93  71  49 SE3       30.01F
HUNTSVILLE     SUNNY     93  73  52 CALM      30.01F
CONROE         SUNNY     92  73  53 W5        30.00F
HOUSTON BUSH   PTSUNNY   96  74  48 N5        29.98F
HOUSTON HOBBY  PTSUNNY   93  73  52 S5        29.97F
PERLAND        SUNNY     95  72  47 S6        29.99F
WHARTON        CLEAR     93  70  47 S3        29.99S
$$

THE UPPER TEXAS COAST

CITY           SKY/WX    TMP DP  RH WIND       PRES   REMARKS
ORANGE         PTCLDY    90  71  54 N6        30.00F
PORT ARTHUR    PTSUNNY   85  75  72 S7        29.98F
GALVESTON      MOSUNNY   89  78  70 S12       30.00F
ANGLETON       MOSUNNY   89  76  65 S9        29.99F
BAY CITY       PTCLDY    93  77  58 SE10      29.99S
$$

TEXAS COASTAL BEND, RIO GRANDE PLAINS DEEP SOUTH TEXAS

CITY           SKY/WX    TMP DP  RH WIND       PRES   REMARKS
VICTORIA       SUNNY     97  74  47 S9        29.97F
BEEVILLE       FAIR     100  68  35 SE9       29.95F
ROCKPORT       SUNNY     90  77  65 SE15      29.98F
PORT ARANSAS   CLEAR     88  78  72 SE13      29.99F
PORT LAVACA    PTCLDY    92  75  58 S10G17    29.98S
CORPUS CHRISTI MOSUNNY   95  75  52 SE17      29.97S
KINGSVILLE NAS MOSUNNY   98  78  52 SE17G23   29.95F HX 115
COTULLA        MOSUNNY  100  67  33 VRB6      29.94F
LAREDO         MOSUNNY  101  66  31 E7        29.95F
BROWNSVILLE    MOSUNNY   94  76  55 SE15      29.96F
PORT ISABEL    MOSUNNY   92  77  61 SE20G25   29.96S HAZE
HEBBRONVILLE   CLEAR     99  61  28 E12       29.96S
MCALLEN        MOSUNNY   99  70  38 SE7       29.92F
WESLACO        SUNNY    100  66  33 S10G18    29.93S
FALFURRIAS     CLEAR     95  59  30 E9        29.92F
EDINBURG       CLEAR    102  65  29 SE14G21   29.92F
$$


USA.gov is the U.S. government's official web portal to all federal, state and local government web resources and services.